Wind_Speed
24 23 22 23 22 23 22 21 22 21 24 24 23 20 20 19 18 17 16 16 16 15 14 16 17 16 16 15 15 14 14 17 14 14 16 16 17 17 15 15 17 18 16 15 18
30 26 26 27 28 25 25 22 23 24 22 25 24 22 21 20 19 18 17 17 16 15 15 16 17 17 18 17 16 16 16 16 15 15 17 17 16 16 16 17 18 17 16 17 16
35 32 32 32 31 29 28 25 24 25 23 24 25 25 23 21 20 19 18 17 17 15 15 16 17 18 18 18 16 16 16 16 16 16 17 18 16 18 18 19 19 19 17 17 17
42 39 35 36 34 33 30 29 27 27 25 23 25 25 24 21 20 20 19 18 18 17 16 16 18 19 19 18 17 16 16 17 14 14 17 18 19 20 19 20 21 20 18 18 18
44 41 38 38 39 37 33 31 28 27 27 24 24 26 25 22 20 20 20 19 18 17 15 16 17 19 21 19 18 16 17 16 15 14 15 17 18 19 21 21 22 20 19 19 20
46 44 44 42 40 38 36 33 31 28 29 27 25 26 26 23 21 21 20 19 18 18 17 18 20 22 20 18 18 16 18 15 14 14 16 19 19 20 21 21 21 21 21 20 21
51 49 46 44 41 39 37 35 34 29 29 28 26 26 26 24 22 21 21 19 18 18 19 21 22 25 20 17 17 19 19 16 15 15 16 19 22 21 22 22 21 21 21 22 22
43 47 46 44 42 42 40 39 35 30 31 28 30 27 27 25 24 22 21 20 20 21 21 23 23 22 19 16 17 18 19 17 16 16 18 19 22 23 21 22 22 21 21 21 22
40 44 44 46 45 46 41 40 39 32 34 31 32 30 28 27 25 23 23 21 20 22 23 23 21 20 18 16 17 17 18 18 16 17 20 21 22 25 19 21 23 20 21 21 21
44 39 39 41 45 43 45 40 37 35 37 32 36 33 29 28 27 24 23 22 22 23 22 23 19 18 18 16 16 17 18 20 18 17 22 23 19 26 19 18 22 22 20 20 20
47 46 42 40 43 45 46 49 45 42 41 37 34 34 31 30 28 25 24 24 25 24 22 20 19 19 17 16 16 17 18 18 16 17 18 19 18 21 22 19 19 20 19 19 19
52 51 48 45 41 43 48 46 43 43 42 40 37 39 35 33 29 27 26 26 27 24 22 20 19 19 18 16 16 16 16 16 15 17 16 17 17 19 19 19 19 19 19 19 19
52 53 51 50 49 48 45 44 46 47 49 43 41 40 38 35 32 30 28 29 29 25 24 21 18 19 19 17 17 17 16 16 15 16 17 17 14 18 19 18 17 17 17 18 18
55 55 55 54 50 53 50 48 49 50 49 50 47 45 42 38 36 31 30 32 31 27 26 21 18 18 18 18 19 19 18 17 17 17 16 17 15 16 17 17 16 16 18 18 18
57 54 56 57 55 52 56 53 53 51 51 49 52 49 43 43 34 33 33 33 31 30 29 22 20 20 19 20 20 21 21 20 18 17 17 18 17 17 16 15 16 16 17 17 17
59 59 60 58 57 55 55 60 56 55 57 51 51 49 48 44 39 34 37 35 34 34 31 26 22 22 22 22 23 23 23 21 18 17 16 19 18 16 16 17 18 17 15 16 17
59 58 60 59 60 58 54 59 61 61 56 55 54 45 46 45 45 41 38 37 35 34 31 28 26 25 22 23 24 24 23 23 21 17 15 17 18 19 16 16 19 19 16 15 17
54 52 51 59 59 61 61 58 61 57 57 60 57 55 49 42 43 45 41 42 39 36 33 33 30 28 26 25 25 24 22 23 25 20 15 16 19 20 19 16 19 20 16 17 19
50 52 56 50 51 58 61 64 58 56 60 58 59 60 54 47 46 38 39 43 41 39 37 36 35 34 31 29 27 24 22 23 24 24 21 14 16 22 22 16 18 23 18 18 18
69 69 60 58 51 47 58 60 59 57 58 61 58 62 60 55 48 40 42 38 39 40 39 39 39 36 34 33 30 27 24 24 24 26 24 14 14 22 23 20 19 21 17 16 15
72 68 68 62 52 48 51 53 54 57 58 58 55 59 61 57 53 53 50 41 40 35 38 40 40 39 37 34 32 31 27 26 27 24 26 21 14 20 22 20 17 16 14 14 14
68 78 71 77 70 56 48 47 52 52 55 58 57 53 58 61 57 54 55 53 42 40 42 38 44 43 39 38 37 35 31 30 30 26 23 22 14 18 20 18 15 14 14 13 13
57 70 73 75 62 74 69 55 53 52 55 56 56 55 56 61 64 62 62 52 51 47 49 49 48 42 42 42 41 35 33 34 31 27 22 19 15 23 24 21 15 14 15 13 13
59 61 67 67 72 79 81 75 59 53 54 56 55 54 54 56 60 63 61 53 52 51 53 53 53 50 46 39 36 39 37 36 34 28 26 18 10 24 25 20 13 14 17 14 13
64 61 62 66 68 70 72 79 69 58 56 54 55 53 51 52 55 59 62 60 57 51 56 56 55 54 49 45 44 45 44 43 38 31 25 19 12 25 22 15 12 14 15 15 11
64 62 61 61 64 60 63 67 71 68 62 59 55 53 49 48 46 49 56 65 69 67 64 61 58 52 49 48 50 49 47 45 38 27 25 23 14 23 19 16 13 15 15 15 12
64 64 62 61 63 62 61 60 66 70 63 58 58 54 54 47 45 46 49 52 59 63 64 64 60 55 55 52 53 50 49 45 37 28 31 24 18 23 21 18 15 18 17 17 15
Wind_Direction
246 252 259 262 262 262 265 271 274 271 270 265 263 260 260 263 265 268 272 274 278 280 283 291 295 296 293 290 290 295 298 300 296 301 300 297 297 292 291 294 295 298 295 301 308
250 257 266 263 262 258 256 263 272 271 266 266 264 262 260 259 259 262 266 271 275 280 285 291 293 294 292 290 293 299 303 298 295 299 300 296 301 304 304 301 299 298 292 301 307
250 257 265 260 261 260 257 255 264 269 266 265 263 262 256 255 255 256 262 267 272 274 281 290 294 293 291 289 291 297 300 297 294 301 302 299 303 307 306 305 303 302 296 298 308
253 256 258 257 256 256 257 255 257 267 262 259 261 259 258 255 252 256 261 266 269 272 279 288 295 297 293 289 290 297 303 298 292 300 306 306 308 307 307 307 305 300 298 300 310
250 252 258 254 256 255 255 255 251 259 264 258 257 260 255 252 252 253 258 265 266 271 275 286 294 300 295 288 288 294 295 301 296 305 309 311 310 307 308 309 305 300 298 303 313
251 253 257 254 255 253 253 252 250 252 259 258 253 256 256 251 251 252 255 259 262 268 273 284 295 296 289 284 287 290 294 296 293 304 314 313 308 304 303 308 308 302 301 308 313
255 254 252 251 249 250 253 250 250 249 252 257 254 252 252 252 251 252 255 254 260 264 270 285 296 295 285 281 282 284 288 294 291 296 309 317 306 301 304 305 310 303 303 308 312
254 251 247 245 247 251 250 249 249 246 249 252 259 252 252 250 251 252 251 251 255 265 272 285 291 287 279 281 281 282 286 290 290 294 300 309 306 299 300 302 306 306 303 306 310
253 247 243 245 247 249 246 246 247 243 248 246 255 253 252 252 251 250 249 247 254 266 276 285 286 282 278 281 280 283 283 284 286 293 298 305 305 297 298 297 299 306 303 306 311
251 248 245 250 247 244 244 238 241 242 246 247 246 251 249 250 249 249 248 246 253 266 276 284 281 274 273 277 279 282 284 286 289 292 305 309 301 299 304 292 298 305 306 306 311
250 252 245 249 244 241 236 240 247 243 244 242 247 251 247 245 246 246 245 245 253 262 276 283 277 270 269 273 278 281 286 287 288 300 309 307 301 301 305 303 299 302 306 303 307
249 252 250 246 242 240 239 241 243 240 240 243 242 244 246 242 244 244 244 243 250 259 271 277 275 268 267 273 282 285 286 288 301 312 312 306 306 305 305 305 304 306 305 300 308
247 248 246 249 246 239 237 238 240 241 239 240 239 239 244 241 242 242 243 245 248 257 268 274 271 267 269 273 283 286 288 296 305 309 315 313 315 307 306 306 307 306 301 301 309
246 246 245 245 249 247 240 238 238 239 242 237 240 239 240 241 241 244 242 245 247 256 262 273 271 272 269 273 280 285 288 297 304 308 313 312 318 310 306 306 307 308 305 305 309
246 243 243 243 245 248 244 237 236 235 241 240 236 240 240 241 243 243 243 242 245 251 255 263 271 271 269 272 278 287 289 295 300 304 308 311 315 314 309 310 308 313 310 306 305
245 245 244 240 242 244 247 241 233 232 236 238 239 238 238 239 240 241 241 241 243 246 249 256 265 268 269 272 280 288 289 290 297 303 302 305 310 309 310 309 308 310 313 305 302
239 239 243 244 241 241 242 244 236 240 242 242 241 237 237 237 239 240 240 241 245 247 247 254 259 264 272 273 279 290 289 291 293 300 302 298 302 304 314 310 309 305 308 309 303
236 233 238 243 244 243 240 240 242 244 247 242 241 241 239 239 237 238 238 239 241 245 248 251 257 264 268 274 278 287 291 290 294 298 301 295 296 302 306 316 313 311 301 300 308
226 234 226 227 232 239 241 241 240 240 244 243 243 244 242 239 237 237 239 239 241 244 247 251 254 260 264 269 273 277 286 290 293 294 305 296 287 293 299 312 315 310 306 303 301
240 245 237 229 224 228 233 240 238 238 242 244 240 245 245 241 236 236 238 239 241 242 244 247 251 254 259 261 265 272 278 287 291 297 300 310 293 286 294 304 313 312 312 307 300
234 234 238 225 218 225 234 237 237 236 237 240 238 241 244 242 240 238 231 235 237 240 244 245 245 249 252 256 261 266 273 281 286 294 298 306 297 276 287 298 304 307 316 314 301
235 231 229 231 237 223 228 235 233 233 234 236 237 235 238 238 238 240 241 232 229 236 236 236 242 246 249 252 255 259 269 276 282 288 294 297 305 288 290 301 303 307 307 312 309
239 236 232 234 243 247 236 234 234 228 231 232 234 235 232 237 238 238 241 236 230 234 239 236 240 241 245 247 252 264 272 273 278 282 289 294 292 294 288 297 304 295 301 308 311
243 237 237 236 238 244 245 242 233 229 230 230 231 231 231 231 236 238 240 233 230 233 237 242 242 243 245 255 258 259 264 268 272 277 280 285 298 277 283 303 294 290 293 304 302
242 241 234 240 238 239 240 244 234 233 232 229 228 230 233 233 232 236 238 231 226 225 231 233 240 241 242 246 251 256 261 266 271 269 277 271 276 261 291 313 285 285 288 295 293
244 243 240 236 241 238 239 233 236 241 234 231 232 229 230 233 233 233 235 238 232 229 228 239 240 236 240 243 248 253 256 260 265 268 270 267 258 269 275 286 280 278 280 285 284
243 243 242 238 237 238 234 235 232 232 230 230 230 229 227 226 234 234 236 235 236 236 233 236 232 232 236 240 246 249 249 259 266 264 262 260 245 263 278 281 274 273 275 279 281
Height
5829 5830 5831 5833 5834 5834 5835 5837 5839 5838 5839 5838 5838 5838 5838 5838 5838 5839 5840 5840 5840 5839 5839 5838 5838 5837 5837 5836 5835 5834 5832 5831 5829 5828 5827 5825 5823 5821 5819 5818 5816 5813 5811 5809 5805
5823 5824 5825 5827 5830 5830 5830 5832 5833 5834 5833 5835 5835 5835 5835 5834 5835 5836 5837 5837 5836 5837 5836 5835 5834 5833 5833 5833 5832 5831 5829 5828 5826 5825 5823 5821 5819 5817 5816 5814 5812 5810 5807 5805 5802
5816 5817 5819 5821 5824 5826 5826 5826 5827 5829 5829 5829 5831 5832 5830 5830 5831 5832 5832 5833 5833 5832 5833 5832 5832 5831 5830 5829 5828 5826 5825 5824 5823 5821 5820 5818 5816 5814 5812 5810 5808 5806 5803 5800 5797
5809 5811 5813 5815 5817 5820 5821 5822 5822 5824 5824 5823 5825 5826 5828 5826 5829 5829 5829 5830 5830 5829 5829 5829 5829 5828 5827 5825 5824 5823 5821 5821 5818 5817 5816 5814 5812 5810 5809 5807 5804 5801 5799 5796 5793
5800 5804 5806 5808 5810 5813 5814 5816 5816 5818 5821 5818 5819 5822 5823 5823 5823 5824 5826 5826 5826 5827 5825 5825 5824 5823 5823 5821 5821 5818 5818 5817 5816 5814 5812 5810 5809 5807 5805 5802 5799 5797 5794 5792 5788
5792 5794 5798 5801 5804 5806 5808 5810 5811 5811 5815 5815 5813 5815 5819 5819 5818 5819 5820 5821 5822 5823 5822 5821 5821 5820 5818 5817 5817 5815 5814 5812 5812 5810 5809 5807 5805 5802 5800 5798 5795 5793 5791 5788 5784
5783 5785 5789 5792 5795 5798 5800 5803 5805 5806 5808 5811 5809 5809 5812 5815 5814 5814 5816 5817 5817 5818 5818 5818 5816 5817 5814 5812 5812 5812 5812 5809 5808 5806 5804 5802 5798 5798 5796 5793 5791 5789 5787 5784 5780
5772 5775 5779 5782 5786 5791 5791 5796 5798 5799 5802 5805 5806 5804 5807 5808 5809 5810 5811 5813 5813 5814 5813 5813 5812 5811 5811 5809 5808 5808 5808 5806 5804 5802 5800 5798 5794 5792 5791 5789 5787 5785 5782 5779 5775
5763 5766 5769 5773 5776 5781 5784 5787 5791 5791 5795 5796 5801 5799 5802 5804 5805 5806 5807 5808 5809 5810 5810 5809 5807 5807 5807 5805 5805 5804 5803 5802 5799 5798 5796 5794 5791 5786 5787 5784 5781 5780 5777 5774 5771
5754 5756 5759 5763 5766 5770 5774 5778 5781 5784 5789 5790 5792 5795 5797 5799 5799 5801 5802 5804 5805 5805 5805 5805 5803 5803 5802 5801 5801 5800 5799 5797 5795 5795 5791 5789 5786 5780 5782 5780 5777 5775 5773 5770 5768
5743 5747 5750 5753 5756 5759 5766 5770 5774 5777 5781 5783 5786 5788 5789 5791 5793 5795 5797 5799 5800 5801 5801 5800 5799 5799 5798 5797 5796 5795 5794 5793 5790 5788 5787 5784 5781 5777 5775 5775 5773 5770 5768 5765 5763
5732 5736 5741 5743 5747 5750 5755 5758 5764 5769 5772 5774 5777 5780 5782 5784 5787 5789 5792 5794 5794 5795 5795 5796 5795 5795 5793 5793 5791 5791 5790 5789 5786 5784 5782 5780 5777 5774 5772 5770 5769 5766 5764 5761 5758
5720 5725 5729 5732 5736 5740 5744 5749 5753 5757 5761 5765 5768 5771 5774 5777 5779 5782 5785 5788 5789 5789 5790 5790 5791 5790 5789 5788 5788 5787 5786 5785 5782 5780 5778 5775 5774 5771 5769 5766 5765 5763 5760 5758 5755
5706 5711 5717 5721 5727 5728 5732 5737 5744 5747 5748 5754 5757 5760 5765 5770 5771 5776 5778 5782 5783 5784 5785 5786 5786 5785 5784 5784 5784 5783 5782 5780 5778 5777 5775 5772 5771 5768 5765 5763 5761 5759 5757 5754 5752
5692 5697 5702 5708 5714 5717 5720 5724 5730 5737 5738 5745 5746 5752 5757 5761 5769 5769 5772 5774 5776 5777 5780 5782 5781 5780 5780 5780 5780 5780 5777 5776 5774 5773 5771 5768 5767 5764 5762 5760 5758 5756 5753 5750 5747
5679 5682 5687 5695 5700 5704 5707 5710 5717 5724 5722 5726 5733 5740 5747 5752 5758 5761 5763 5766 5769 5770 5772 5775 5775 5776 5775 5775 5775 5774 5772 5771 5770 5769 5768 5765 5763 5761 5758 5757 5754 5752 5749 5746 5744
5665 5670 5674 5680 5685 5689 5692 5696 5702 5707 5716 5720 5723 5731 5737 5743 5748 5752 5756 5758 5761 5764 5767 5769 5770 5770 5771 5770 5770 5769 5767 5765 5766 5765 5764 5762 5760 5757 5754 5752 5751 5748 5746 5743 5741
5652 5658 5660 5667 5670 5675 5677 5679 5687 5700 5704 5710 5713 5720 5728 5734 5737 5743 5746 5748 5752 5756 5760 5762 5764 5765 5766 5765 5764 5764 5762 5761 5758 5759 5761 5759 5755 5752 5749 5749 5747 5744 5743 5740 5737
5637 5643 5648 5651 5655 5659 5661 5662 5679 5686 5692 5699 5704 5709 5716 5723 5729 5733 5736 5741 5745 5750 5753 5754 5755 5757 5758 5758 5759 5759 5758 5756 5754 5753 5753 5755 5752 5748 5744 5745 5743 5740 5739 5736 5734
5620 5626 5637 5639 5641 5644 5643 5653 5666 5672 5677 5685 5692 5697 5702 5709 5717 5722 5728 5732 5737 5741 5742 5745 5747 5749 5751 5751 5752 5752 5753 5751 5750 5747 5747 5749 5747 5741 5740 5740 5739 5736 5734 5732 5730
5604 5609 5622 5625 5624 5624 5629 5643 5650 5657 5664 5670 5676 5682 5689 5696 5702 5708 5714 5723 5727 5730 5733 5736 5738 5741 5742 5743 5745 5745 5746 5745 5744 5744 5740 5741 5742 5736 5735 5734 5735 5732 5730 5728 5727
5585 5589 5603 5605 5603 5609 5619 5634 5640 5644 5648 5653 5660 5668 5675 5682 5688 5694 5701 5708 5715 5719 5720 5725 5725 5728 5733 5734 5734 5736 5738 5738 5738 5739 5737 5736 5738 5732 5729 5729 5731 5728 5726 5725 5723
5567 5574 5581 5583 5584 5592 5607 5618 5622 5630 5635 5639 5646 5653 5660 5667 5672 5680 5686 5694 5699 5706 5708 5712 5714 5717 5720 5723 5725 5729 5731 5731 5731 5732 5732 5732 5732 5725 5722 5725 5728 5724 5722 5721 5720
5551 5556 5564 5568 5572 5581 5592 5600 5611 5618 5621 5627 5635 5638 5646 5651 5658 5665 5672 5680 5686 5691 5695 5699 5704 5706 5710 5717 5720 5719 5722 5722 5724 5726 5725 5728 5728 5719 5717 5721 5722 5720 5717 5717 5716
5531 5541 5549 5551 5561 5569 5574 5584 5597 5607 5612 5614 5621 5629 5636 5639 5644 5649 5657 5664 5670 5676 5680 5685 5691 5695 5700 5705 5707 5710 5712 5713 5716 5719 5720 5722 5721 5713 5713 5715 5716 5715 5714 5713 5712
5515 5525 5533 5542 5546 5553 5556 5566 5582 5594 5595 5603 5611 5619 5623 5626 5632 5635 5640 5645 5650 5658 5665 5672 5678 5684 5689 5693 5696 5698 5700 5701 5707 5713 5714 5713 5715 5708 5709 5710 5709 5709 5709 5709 5708
5500 5506 5514 5522 5528 5533 5544 5557 5566 5572 5582 5591 5602 5602 5604 5616 5615 5620 5625 5632 5638 5646 5654 5660 5666 5671 5676 5681 5684 5685 5687 5693 5699 5704 5706 5706 5708 5704 5704 5704 5703 5702 5704 5704 5704